| time (UTC) | temp F | wind direction | speed knots | gust knots | rain 1hr in | rain 24hr in | rain mn in | humidity % | barometer mb |
| 20260505232925 | 84 | 189 | 0.0 | 0.0 | 0.00 | 0.00 | 0.00 | 73 | 1004.2 |
| 20260505232422 | 85 | 208 | 0.0 | 0.0 | 0.00 | 0.00 | 0.00 | 72 | 1004.1 |
| 20260505231919 | 85 | 193 | 0.0 | 0.0 | 0.00 | 0.00 | 0.00 | 71 | 1004.0 |
| 20260505231416 | 85 | 171 | 0.0 | 0.9 | 0.00 | 0.00 | 0.00 | 71 | 1004.3 |
| 20260505230914 | 86 | 175 | 0.0 | 0.0 | 0.00 | 0.00 | 0.00 | 70 | 1004.3 |
| 20260505230412 | 86 | 195 | 0.9 | 0.9 | 0.00 | 0.00 | 0.00 | 69 | 1004.0 |
| 20260505225908 | 86 | 190 | 0.0 | 0.9 | 0.00 | 0.00 | 0.00 | 68 | 1004.0 |
| 20260505225406 | 87 | 190 | 0.0 | 0.0 | 0.00 | 0.00 | 0.00 | 69 | 1003.7 |
| 20260505224906 | 87 | 201 | 0.0 | 0.0 | 0.00 | 0.00 | 0.00 | 68 | 1003.8 |
| 20260505224404 | 87 | 183 | 0.0 | 0.0 | 0.00 | 0.00 | 0.00 | 69 | 1003.8 |
| 20260505223900 | 86 | 201 | 0.0 | 0.0 | 0.00 | 0.00 | 0.00 | 69 | 1003.9 |
| 20260505223357 | 87 | 175 | 0.0 | 0.0 | 0.00 | 0.00 | 0.00 | 68 | 1003.8 |
| 20260505222853 | 87 | 199 | 0.0 | 0.0 | 0.00 | 0.00 | 0.00 | 68 | 1003.6 |
| 20260505222350 | 87 | 196 | 0.9 | 1.7 | 0.00 | 0.00 | 0.00 | 68 | 1003.7 |
| 20260505221847 | 87 | 192 | 0.0 | 0.0 | 0.00 | 0.00 | 0.00 | 68 | 1003.7 |
| 20260505221343 | 87 | 202 | 0.0 | 0.0 | 0.00 | 0.00 | 0.00 | 66 | 1003.8 |
| 20260505220840 | 87 | 189 | 1.7 | 1.7 | 0.00 | 0.00 | 0.00 | 63 | 1003.7 |
| 20260505220337 | 87 | 178 | 0.0 | 0.9 | 0.00 | 0.00 | 0.00 | 65 | 1003.7 |
| 20260505215835 | 87 | 190 | 0.0 | 0.0 | 0.00 | 0.00 | 0.00 | 67 | 1003.5 |
| 20260505215333 | 87 | 185 | 0.9 | 0.9 | 0.00 | 0.00 | 0.00 | 65 | 1003.8 |
| 20260505214831 | 87 | 202 | 0.0 | 0.0 | 0.00 | 0.00 | 0.00 | 67 | 1003.8 |
| 20260505214328 | 87 | 216 | 0.0 | 0.0 | 0.00 | 0.00 | 0.00 | 66 | 1003.8 |
| 20260505213825 | 87 | 197 | 0.0 | 0.0 | 0.00 | 0.00 | 0.00 | 66 | 1003.8 |
| 20260505213323 | 87 | 195 | 0.9 | 0.9 | 0.00 | 0.00 | 0.00 | 65 | 1004.0 |
| 20260505212819 | 87 | 200 | 0.0 | 0.0 | 0.00 | 0.00 | 0.00 | 65 | 1003.9 |
| 20260505212316 | 87 | 208 | 0.0 | 0.0 | 0.00 | 0.00 | 0.00 | 67 | 1004.1 |
| 20260505211812 | 87 | 173 | 0.0 | 0.9 | 0.00 | 0.00 | 0.00 | 65 | 1004.1 |
| 20260505211310 | 88 | 195 | 0.0 | 0.9 | 0.00 | 0.00 | 0.00 | 64 | 1004.1 |
| 20260505210806 | 88 | 188 | 0.0 | 0.9 | 0.00 | 0.00 | 0.00 | 63 | 1004.4 |
| 20260505210303 | 87 | 213 | 0.0 | 0.0 | 0.00 | 0.00 | 0.00 | 65 | 1004.2 |
| 20260505205800 | 87 | 197 | 0.0 | 0.0 | 0.00 | 0.00 | 0.00 | 67 | 1004.3 |
| 20260505205259 | 87 | 177 | 0.0 | 0.9 | 0.00 | 0.00 | 0.00 | 67 | 1004.4 |
| 20260505204755 | 87 | 209 | 0.0 | 0.0 | 0.00 | 0.00 | 0.00 | 65 | 1004.4 |
| 20260505204253 | 87 | 188 | 0.0 | 0.0 | 0.00 | 0.00 | 0.00 | 64 | 1004.5 |
| 20260505203749 | 87 | 215 | 0.0 | 0.9 | 0.00 | 0.00 | 0.00 | 63 | 1004.7 |
| 20260505203246 | 87 | 158 | 0.9 | 1.7 | 0.00 | 0.00 | 0.00 | 63 | 1004.5 |
| 20260505202742 | 87 | 204 | 0.0 | 0.0 | 0.00 | 0.00 | 0.00 | 63 | 1004.7 |
| 20260505202238 | 87 | 158 | 0.9 | 0.9 | 0.00 | 0.00 | 0.00 | 64 | 1004.7 |
| 20260505201736 | 87 | 200 | 0.0 | 0.0 | 0.00 | 0.00 | 0.00 | 68 | 1004.8 |
| 20260505201233 | 86 | 174 | 0.9 | 0.9 | 0.00 | 0.00 | 0.00 | 65 | 1004.9 |
| 20260505200731 | 86 | 204 | 0.0 | 0.9 | 0.00 | 0.00 | 0.00 | 65 | 1005.0 |
| 20260505200228 | 86 | 182 | 0.0 | 0.9 | 0.00 | 0.00 | 0.00 | 67 | 1005.0 |
| 20260505195723 | 86 | 191 | 0.9 | 1.7 | 0.00 | 0.00 | 0.00 | 66 | 1004.9 |
| 20260505195221 | 86 | 171 | 0.9 | 0.9 | 0.00 | 0.00 | 0.00 | 68 | 1005.0 |
| 20260505194718 | 85 | 181 | 0.9 | 1.7 | 0.00 | 0.00 | 0.00 | 67 | 1004.9 |
| 20260505194214 | 85 | 166 | 0.0 | 0.9 | 0.00 | 0.00 | 0.00 | 68 | 1004.9 |
| 20260505193710 | 85 | 186 | 0.0 | 0.0 | 0.00 | 0.00 | 0.00 | 69 | 1005.2 |
| 20260505193208 | 85 | 185 | 0.9 | 0.9 | 0.00 | 0.00 | 0.00 | 68 | 1004.9 |
| 20260505192707 | 84 | 204 | 0.9 | 0.9 | 0.00 | 0.00 | 0.00 | 69 | 1005.2 |
| 20260505192204 | 84 | 273 | 0.0 | 0.9 | 0.00 | 0.00 | 0.00 | 69 | 1005.1 |
| 20260505191702 | 84 | 203 | 0.9 | 0.9 | 0.00 | 0.00 | 0.00 | 69 | 1005.0 |
| 20260505191200 | 84 | 184 | 0.0 | 0.9 | 0.00 | 0.00 | 0.00 | 72 | 1005.1 |
| 20260505190656 | 84 | 179 | 1.7 | 1.7 | 0.00 | 0.00 | 0.00 | 69 | 1005.2 |
| 20260505190155 | 84 | 185 | 0.9 | 1.7 | 0.00 | 0.00 | 0.00 | 71 | 1005.1 |
| 20260505185652 | 83 | 228 | 0.9 | 1.7 | 0.00 | 0.00 | 0.00 | 72 | 1005.3 |
| 20260505185149 | 83 | 203 | 0.0 | 0.0 | 0.00 | 0.00 | 0.00 | 72 | 1005.3 |
| 20260505184645 | 83 | 190 | 0.0 | 0.9 | 0.00 | 0.00 | 0.00 | 72 | 1005.3 |
| 20260505184143 | 82 | 170 | 0.9 | 0.9 | 0.00 | 0.00 | 0.00 | 73 | 1005.2 |
| 20260505183639 | 82 | 219 | 0.9 | 0.9 | 0.00 | 0.00 | 0.00 | 73 | 1005.5 |
| 20260505183137 | 82 | 183 | 0.9 | 0.9 | 0.00 | 0.00 | 0.00 | 73 | 1005.2 |
| 20260505182633 | 82 | 228 | 0.0 | 0.0 | 0.00 | 0.00 | 0.00 | 73 | 1005.4 |
| 20260505182130 | 82 | 212 | 0.0 | 0.0 | 0.00 | 0.00 | 0.00 | 73 | 1005.6 |
| 20260505181626 | 82 | 197 | 0.0 | 0.9 | 0.00 | 0.00 | 0.00 | 74 | 1005.5 |
| 20260505181124 | 82 | 174 | 1.7 | 2.6 | 0.00 | 0.00 | 0.00 | 73 | 1005.5 |
| 20260505180620 | 81 | 216 | 0.0 | 0.9 | 0.00 | 0.00 | 0.00 | 73 | 1005.6 |
| 20260505180117 | 81 | 172 | 0.9 | 1.7 | 0.00 | 0.00 | 0.00 | 74 | 1005.5 |
| 20260505175613 | 82 | 225 | 0.9 | 1.7 | 0.00 | 0.00 | 0.00 | 73 | 1005.6 |
| 20260505175109 | 82 | 203 | 0.0 | 0.0 | 0.00 | 0.00 | 0.00 | 72 | 1005.4 |
| 20260505174606 | 82 | 204 | 0.9 | 0.9 | 0.00 | 0.00 | 0.00 | 71 | 1005.6 |
| 20260505174102 | 82 | 199 | 0.9 | 1.7 | 0.00 | 0.00 | 0.00 | 72 | 1005.7 |
| 20260505173554 | 82 | 198 | 0.0 | 0.9 | 0.00 | 0.00 | 0.00 | 75 | 1005.4 |
| 20260505173051 | 81 | 173 | 0.9 | 1.7 | 0.00 | 0.00 | 0.00 | 73 | 1005.6 |
| 20260505172548 | 81 | 196 | 0.9 | 0.9 | 0.00 | 0.00 | 0.00 | 73 | 1005.6 |
| 20260505172045 | 81 | 176 | 0.0 | 0.0 | 0.00 | 0.00 | 0.00 | 73 | 1005.7 |
| 20260505171545 | 81 | 219 | 0.9 | 0.9 | 0.00 | 0.00 | 0.00 | 73 | 1005.6 |
| 20260505171042 | 81 | 193 | 0.0 | 0.0 | 0.00 | 0.00 | 0.00 | 74 | 1005.5 |
| 20260505170539 | 81 | 184 | 0.0 | 0.9 | 0.00 | 0.00 | 0.00 | 73 | 1005.6 |
| 20260505170035 | 81 | 169 | 1.7 | 1.7 | 0.00 | 0.00 | 0.00 | 73 | 1005.7 |
| 20260505165531 | 80 | 197 | 1.7 | 1.7 | 0.00 | 0.00 | 0.00 | 74 | 1005.8 |
| 20260505165026 | 79 | 199 | 0.0 | 0.0 | 0.00 | 0.00 | 0.00 | 75 | 1005.6 |
| 20260505164522 | 79 | 188 | 0.0 | 0.0 | 0.00 | 0.00 | 0.00 | 76 | 1005.7 |
| 20260505164021 | 79 | 184 | 0.9 | 0.9 | 0.00 | 0.00 | 0.00 | 75 | 1005.8 |
| 20260505163519 | 79 | 319 | 1.7 | 3.5 | 0.00 | 0.00 | 0.00 | 75 | 1005.7 |
| 20260505163015 | 79 | 182 | 1.7 | 2.6 | 0.00 | 0.00 | 0.00 | 75 | 1005.7 |
| 20260505162509 | 80 | 167 | 0.9 | 1.7 | 0.00 | 0.00 | 0.00 | 76 | 1005.3 |
| 20260505162006 | 79 | 353 | 0.9 | 1.7 | 0.00 | 0.00 | 0.00 | 76 | 1005.3 |
| 20260505161502 | 79 | 183 | 0.9 | 0.9 | 0.00 | 0.00 | 0.00 | 75 | 1005.4 |
| 20260505160959 | 79 | 190 | 0.9 | 1.7 | 0.00 | 0.00 | 0.00 | 76 | 1005.4 |
| 20260505160457 | 78 | 171 | 0.9 | 1.7 | 0.00 | 0.00 | 0.00 | 75 | 1005.5 |
| 20260505152934 | 78 | 213 | 0.9 | 0.9 | 0.00 | 0.00 | 0.00 | 79 | 1005.6 |
| 20260505152426 | 77 | 228 | 0.9 | 1.7 | 0.00 | 0.00 | 0.00 | 79 | 1005.6 |
| 20260505151925 | 77 | 218 | 0.9 | 1.7 | 0.00 | 0.00 | 0.00 | 80 | 1005.5 |
| 20260505151421 | 76 | 170 | 1.7 | 2.6 | 0.00 | 0.00 | 0.00 | 81 | 1005.6 |
| 20260505150919 | 76 | 202 | 0.9 | 0.9 | 0.00 | 0.00 | 0.00 | 82 | 1005.6 |
| 20260505150416 | 76 | 208 | 0.0 | 0.0 | 0.00 | 0.00 | 0.00 | 82 | 1005.7 |
| 20260505140340 | 73 | 208 | 0.9 | 0.9 | 0.00 | 0.00 | 0.00 | 85 | 1005.6 |
| 20260505130303 | 72 | 210 | 0.0 | 0.0 | 0.00 | 0.00 | 0.00 | 87 | 1005.3 |
| 20260505124754 | 71 | 191 | 0.0 | 0.0 | 0.00 | 0.00 | 0.00 | 87 | 1005.3 |
| 20260505124251 | 71 | 200 | 0.0 | 0.0 | 0.00 | 0.00 | 0.00 | 87 | 1005.2 |
| 20260505123746 | 71 | 226 | 0.0 | 0.0 | 0.00 | 0.00 | 0.00 | 87 | 1005.1 |
| 20260505123243 | 71 | 203 | 0.0 | 0.0 | 0.00 | 0.00 | 0.00 | 87 | 1005.0 |
| 20260505122739 | 71 | 198 | 0.0 | 0.0 | 0.00 | 0.00 | 0.00 | 87 | 1004.8 |
| 20260505122237 | 71 | 202 | 0.0 | 0.0 | 0.00 | 0.00 | 0.00 | 87 | 1004.8 |
| 20260505121733 | 71 | 199 | 0.0 | 0.0 | 0.00 | 0.00 | 0.00 | 87 | 1004.7 |
| 20260505121230 | 71 | 198 | 0.0 | 0.9 | 0.00 | 0.00 | 0.00 | 87 | 1004.8 |
| 20260505120726 | 71 | 197 | 0.0 | 0.0 | 0.00 | 0.00 | 0.00 | 87 | 1004.9 |
| 20260505120223 | 71 | 185 | 0.0 | 0.9 | 0.00 | 0.00 | 0.00 | 87 | 1004.7 |
| 20260505115721 | 71 | 203 | 0.0 | 0.0 | 0.00 | 0.00 | 0.00 | 87 | 1004.7 |
| 20260505115219 | 71 | 335 | 0.0 | 0.0 | 0.00 | 0.00 | 0.00 | 87 | 1004.4 |
| 20260505114716 | 71 | 190 | 0.0 | 0.0 | 0.00 | 0.00 | 0.00 | 87 | 1004.4 |
| 20260505114212 | 71 | 208 | 0.0 | 0.0 | 0.00 | 0.00 | 0.00 | 87 | 1004.4 |
| 20260505113709 | 71 | 187 | 0.0 | 0.0 | 0.00 | 0.00 | 0.00 | 87 | 1004.6 |
| 20260505113206 | 71 | 187 | 0.9 | 0.9 | 0.00 | 0.00 | 0.00 | 87 | 1004.3 |
| 20260505112702 | 71 | 187 | 0.0 | 0.0 | 0.00 | 0.00 | 0.00 | 87 | 1004.5 |
| 20260505112200 | 71 | 193 | 0.0 | 0.9 | 0.00 | 0.00 | 0.00 | 87 | 1004.7 |
| 20260505111659 | 71 | 205 | 0.9 | 0.9 | 0.00 | 0.00 | 0.00 | 86 | 1004.5 |
| 20260505111155 | 71 | 203 | 0.0 | 0.9 | 0.00 | 0.00 | 0.00 | 86 | 1004.5 |
| 20260505110651 | 71 | 200 | 0.0 | 0.0 | 0.00 | 0.00 | 0.00 | 86 | 1004.6 |
| 20260505110149 | 71 | 183 | 0.0 | 0.0 | 0.00 | 0.00 | 0.00 | 86 | 1004.7 |
| 20260505102125 | 71 | 197 | 0.9 | 1.7 | 0.00 | 0.00 | 0.00 | 85 | 1004.5 |
| 20260505101623 | 71 | 270 | 0.0 | 0.9 | 0.00 | 0.00 | 0.00 | 85 | 1004.7 |
| 20260505101119 | 71 | 192 | 0.9 | 0.9 | 0.00 | 0.00 | 0.00 | 85 | 1004.6 |
| 20260505100615 | 71 | 187 | 0.9 | 0.9 | 0.00 | 0.00 | 0.00 | 85 | 1004.7 |
| 20260505100113 | 71 | 276 | 0.9 | 0.9 | 0.00 | 0.00 | 0.00 | 85 | 1004.7 |
| 20260505095609 | 71 | 178 | 0.0 | 0.9 | 0.00 | 0.00 | 0.00 | 85 | 1004.7 |
| 20260505095106 | 71 | 203 | 0.0 | 0.9 | 0.00 | 0.00 | 0.00 | 85 | 1004.8 |
| 20260505094602 | 72 | 182 | 0.9 | 0.9 | 0.00 | 0.00 | 0.00 | 85 | 1004.9 |
| 20260505094058 | 72 | 197 | 0.0 | 0.9 | 0.00 | 0.00 | 0.00 | 85 | 1004.7 |
| 20260505093554 | 72 | 207 | 0.0 | 0.9 | 0.00 | 0.00 | 0.00 | 85 | 1004.7 |
| 20260505093052 | 72 | 151 | 0.0 | 0.0 | 0.00 | 0.00 | 0.00 | 85 | 1004.8 |
| 20260505092549 | 72 | 190 | 0.0 | 0.0 | 0.00 | 0.00 | 0.00 | 85 | 1004.9 |
| 20260505092048 | 71 | 215 | 0.9 | 1.7 | 0.00 | 0.00 | 0.00 | 85 | 1005.1 |
| 20260505091544 | 71 | 187 | 0.0 | 0.9 | 0.00 | 0.00 | 0.00 | 85 | 1005.1 |
| 20260505091043 | 71 | 252 | 0.9 | 1.7 | 0.00 | 0.00 | 0.00 | 85 | 1004.8 |
| 20260505090540 | 71 | 186 | 0.0 | 0.9 | 0.00 | 0.00 | 0.00 | 85 | 1005.0 |
| 20260505090038 | 71 | 190 | 0.0 | 0.0 | 0.00 | 0.00 | 0.00 | 85 | 1004.8 |
| 20260505085536 | 71 | 221 | 2.6 | 2.6 | 0.00 | 0.00 | 0.00 | 85 | 1004.9 |
| 20260505085034 | 71 | 232 | 0.0 | 0.0 | 0.00 | 0.00 | 0.00 | 86 | 1004.8 |
| 20260505084531 | 71 | 189 | 0.9 | 1.7 | 0.00 | 0.00 | 0.00 | 86 | 1005.0 |
| 20260505084029 | 71 | 236 | 0.9 | 0.9 | 0.00 | 0.00 | 0.00 | 86 | 1004.8 |
| 20260505083526 | 71 | 201 | 0.0 | 0.9 | 0.00 | 0.00 | 0.00 | 86 | 1005.0 |
| 20260505083023 | 71 | 203 | 0.0 | 0.0 | 0.00 | 0.00 | 0.00 | 86 | 1004.8 |
| 20260505082518 | 71 | 222 | 0.0 | 0.9 | 0.00 | 0.00 | 0.00 | 86 | 1005.1 |
| 20260505082015 | 71 | 195 | 0.0 | 0.0 | 0.00 | 0.00 | 0.00 | 86 | 1005.2 |
| 20260505081512 | 71 | 175 | 0.9 | 0.9 | 0.00 | 0.00 | 0.00 | 85 | 1005.1 |
| 20260505081009 | 71 | 209 | 0.0 | 0.9 | 0.00 | 0.00 | 0.00 | 85 | 1005.2 |
| 20260505080505 | 71 | 188 | 0.0 | 0.0 | 0.00 | 0.00 | 0.00 | 85 | 1005.2 |
| 20260505080001 | 71 | 192 | 0.0 | 0.9 | 0.00 | 0.00 | 0.00 | 85 | 1005.2 |
| 20260505075457 | 71 | 190 | 0.0 | 0.0 | 0.00 | 0.00 | 0.00 | 85 | 1005.4 |
| 20260505074955 | 71 | 191 | 0.0 | 0.0 | 0.00 | 0.00 | 0.00 | 85 | 1005.4 |
| 20260505074452 | 71 | 190 | 0.9 | 0.9 | 0.00 | 0.00 | 0.00 | 85 | 1005.4 |
| 20260505073949 | 71 | 181 | 0.9 | 0.9 | 0.00 | 0.00 | 0.00 | 84 | 1005.5 |
| 20260505073447 | 71 | 212 | 0.9 | 0.9 | 0.00 | 0.00 | 0.00 | 84 | 1005.6 |
| 20260505072943 | 71 | 215 | 0.9 | 1.7 | 0.00 | 0.00 | 0.00 | 84 | 1005.8 |
| 20260505072440 | 71 | 220 | 0.9 | 0.9 | 0.00 | 0.00 | 0.00 | 84 | 1005.9 |
| 20260505071936 | 72 | 190 | 0.9 | 1.7 | 0.00 | 0.00 | 0.00 | 83 | 1005.9 |
| 20260505071432 | 72 | 218 | 1.7 | 1.7 | 0.00 | 0.00 | 0.00 | 83 | 1006.0 |
| 20260505070930 | 72 | 194 | 1.7 | 2.6 | 0.00 | 0.00 | 0.00 | 83 | 1006.1 |
| 20260505070427 | 72 | 204 | 0.0 | 0.9 | 0.00 | 0.00 | 0.00 | 83 | 1006.0 |
| 20260505065922 | 72 | 196 | 0.0 | 0.0 | 0.00 | 0.00 | 0.00 | 83 | 1006.2 |
| 20260505065419 | 72 | 196 | 0.0 | 0.0 | 0.00 | 0.00 | 0.00 | 82 | 1006.2 |
| 20260505064916 | 72 | 201 | 0.0 | 0.0 | 0.00 | 0.00 | 0.00 | 82 | 1006.1 |
| 20260505064413 | 72 | 194 | 0.0 | 0.0 | 0.00 | 0.00 | 0.00 | 82 | 1006.2 |
| 20260505063911 | 72 | 197 | 1.7 | 2.6 | 0.00 | 0.00 | 0.00 | 82 | 1006.4 |
| 20260505063407 | 72 | 202 | 0.9 | 0.9 | 0.00 | 0.00 | 0.00 | 81 | 1006.5 |
| 20260505062904 | 72 | 185 | 0.0 | 0.0 | 0.00 | 0.00 | 0.00 | 81 | 1006.4 |
| 20260505062401 | 72 | 183 | 0.0 | 0.0 | 0.00 | 0.00 | 0.00 | 81 | 1006.4 |
| 20260505061858 | 73 | 203 | 0.0 | 0.0 | 0.00 | 0.00 | 0.00 | 81 | 1006.2 |
| 20260505061356 | 73 | 296 | 0.9 | 0.9 | 0.00 | 0.00 | 0.00 | 80 | 1006.4 |
| 20260505060853 | 73 | 192 | 0.0 | 0.0 | 0.00 | 0.00 | 0.00 | 80 | 1006.3 |
| 20260505060350 | 73 | 176 | 0.0 | 0.0 | 0.00 | 0.00 | 0.00 | 80 | 1006.3 |
| 20260505055846 | 73 | 203 | 0.0 | 0.0 | 0.00 | 0.00 | 0.00 | 79 | 1006.3 |
| 20260505055342 | 73 | 220 | 0.9 | 1.7 | 0.00 | 0.00 | 0.00 | 79 | 1006.4 |
| 20260505054839 | 73 | 206 | 0.0 | 0.0 | 0.00 | 0.00 | 0.00 | 79 | 1006.3 |
| 20260505054337 | 73 | 202 | 0.0 | 0.9 | 0.00 | 0.00 | 0.00 | 79 | 1006.4 |
| 20260505053835 | 73 | 197 | 0.0 | 0.9 | 0.00 | 0.00 | 0.00 | 79 | 1006.4 |
| 20260505053331 | 73 | 179 | 0.9 | 0.9 | 0.00 | 0.00 | 0.00 | 78 | 1006.4 |
| 20260505052828 | 73 | 190 | 0.9 | 2.6 | 0.00 | 0.00 | 0.00 | 78 | 1006.5 |
| 20260505052325 | 73 | 258 | 0.0 | 0.9 | 0.00 | 0.00 | 0.00 | 78 | 1006.4 |
| 20260505051823 | 73 | 188 | 0.0 | 0.9 | 0.00 | 0.00 | 0.00 | 77 | 1006.4 |
| 20260505051320 | 73 | 192 | 0.0 | 0.0 | 0.00 | 0.00 | 0.00 | 77 | 1006.7 |
| 20260505050818 | 73 | 179 | 0.9 | 0.9 | 0.00 | 0.00 | 0.00 | 77 | 1006.7 |
| 20260505050317 | 73 | 197 | 0.9 | 1.7 | 0.00 | 0.00 | 0.00 | 77 | 1006.6 |
| 20260505041746 | 74 | 187 | 0.0 | 0.0 | 0.00 | 0.00 | 0.00 | 75 | 1006.9 |
| 20260505041243 | 74 | 209 | 0.9 | 0.9 | 0.00 | 0.00 | 0.00 | 75 | 1006.8 |
| 20260505040740 | 74 | 221 | 0.0 | 0.0 | 0.00 | 0.00 | 0.00 | 75 | 1006.8 |
| 20260505040238 | 74 | 185 | 0.0 | 0.0 | 0.00 | 0.00 | 0.00 | 75 | 1006.9 |
| 20260505035734 | 74 | 199 | 0.0 | 0.0 | 0.00 | 0.00 | 0.00 | 75 | 1006.9 |
| 20260505035230 | 73 | 206 | 0.0 | 0.0 | 0.00 | 0.00 | 0.00 | 75 | 1006.7 |
| 20260505034727 | 74 | 186 | 0.0 | 0.0 | 0.00 | 0.00 | 0.00 | 75 | 1006.7 |
| 20260505034224 | 73 | 194 | 0.0 | 0.0 | 0.00 | 0.00 | 0.00 | 75 | 1006.7 |
| 20260505033721 | 73 | 207 | 0.0 | 0.0 | 0.00 | 0.00 | 0.00 | 75 | 1006.7 |
| 20260505033219 | 74 | 192 | 0.0 | 0.0 | 0.00 | 0.00 | 0.00 | 75 | 1006.7 |
| 20260505032717 | 74 | 210 | 0.0 | 0.0 | 0.00 | 0.00 | 0.00 | 74 | 1006.8 |
| 20260505032212 | 74 | 191 | 0.0 | 0.0 | 0.00 | 0.00 | 0.00 | 74 | 1006.8 |
| 20260505031710 | 74 | 198 | 0.0 | 0.0 | 0.00 | 0.00 | 0.00 | 74 | 1007.0 |
| 20260505031206 | 74 | 203 | 0.0 | 0.0 | 0.00 | 0.00 | 0.00 | 73 | 1007.1 |
| 20260505030703 | 74 | 192 | 0.0 | 0.0 | 0.00 | 0.00 | 0.00 | 73 | 1007.1 |
| 20260505030159 | 74 | 209 | 0.0 | 0.0 | 0.00 | 0.00 | 0.00 | 73 | 1006.9 |
| 20260505025655 | 74 | 205 | 0.0 | 0.0 | 0.00 | 0.00 | 0.00 | 73 | 1006.9 |
| 20260505025153 | 75 | 171 | 0.0 | 0.9 | 0.00 | 0.00 | 0.00 | 72 | 1007.0 |
| 20260505024651 | 75 | 159 | 0.9 | 0.9 | 0.00 | 0.00 | 0.00 | 72 | 1006.8 |
| 20260505024147 | 75 | 199 | 0.0 | 0.0 | 0.00 | 0.00 | 0.00 | 72 | 1006.9 |
| 20260505023645 | 75 | 157 | 0.0 | 0.0 | 0.00 | 0.00 | 0.00 | 72 | 1006.9 |
| 20260505023143 | 75 | 205 | 0.0 | 0.0 | 0.00 | 0.00 | 0.00 | 71 | 1006.5 |
| 20260505022640 | 75 | 195 | 0.0 | 0.0 | 0.00 | 0.00 | 0.00 | 71 | 1006.5 |
| 20260505022137 | 75 | 206 | 0.0 | 0.0 | 0.00 | 0.00 | 0.00 | 71 | 1006.3 |
| 20260505021633 | 75 | 173 | 0.0 | 0.0 | 0.00 | 0.00 | 0.00 | 70 | 1006.6 |
| 20260505021130 | 75 | 190 | 0.0 | 0.0 | 0.00 | 0.00 | 0.00 | 71 | 1006.7 |
| 20260505020626 | 75 | 239 | 1.7 | 1.7 | 0.00 | 0.00 | 0.00 | 71 | 1006.5 |
| 20260505020122 | 75 | 307 | 0.0 | 0.9 | 0.00 | 0.00 | 0.00 | 70 | 1006.3 |
| 20260505015619 | 75 | 203 | 0.0 | 0.0 | 0.00 | 0.00 | 0.00 | 70 | 1006.7 |
| 20260505015111 | 75 | 190 | 0.9 | 0.9 | 0.00 | 0.00 | 0.00 | 70 | 1006.4 |
| 20260505014607 | 76 | 195 | 0.0 | 0.0 | 0.00 | 0.00 | 0.00 | 69 | 1006.5 |
| 20260505014104 | 75 | 192 | 0.0 | 0.0 | 0.00 | 0.00 | 0.00 | 70 | 1006.6 |
| 20260505013602 | 76 | 199 | 0.0 | 0.0 | 0.00 | 0.00 | 0.00 | 69 | 1006.6 |
| 20260505013059 | 76 | 199 | 0.0 | 0.0 | 0.00 | 0.00 | 0.00 | 69 | 1006.6 |
| 20260505012557 | 76 | 146 | 0.9 | 1.7 | 0.00 | 0.00 | 0.00 | 69 | 1006.6 |
| 20260505012054 | 76 | 208 | 0.0 | 0.0 | 0.00 | 0.00 | 0.00 | 69 | 1006.7 |
| 20260505011549 | 76 | 205 | 0.0 | 0.0 | 0.00 | 0.00 | 0.00 | 69 | 1006.6 |
| 20260505011047 | 77 | 206 | 0.0 | 0.0 | 0.00 | 0.00 | 0.00 | 68 | 1006.5 |
| 20260505010542 | 77 | 229 | 1.7 | 1.7 | 0.00 | 0.00 | 0.00 | 67 | 1006.5 |
| 20260505010039 | 77 | 193 | 0.0 | 0.0 | 0.00 | 0.00 | 0.00 | 67 | 1006.5 |
| 20260505005535 | 77 | 46 | 0.9 | 0.9 | 0.00 | 0.00 | 0.00 | 67 | 1006.7 |
| 20260505005032 | 77 | 170 | 0.9 | 1.7 | 0.00 | 0.00 | 0.00 | 66 | 1006.6 |
| 20260505004529 | 77 | 188 | 0.0 | 0.0 | 0.00 | 0.00 | 0.00 | 66 | 1006.5 |
| 20260505004026 | 77 | 175 | 1.7 | 2.6 | 0.00 | 0.00 | 0.00 | 66 | 1006.6 |
| 20260505003523 | 77 | 199 | 0.0 | 0.9 | 0.00 | 0.00 | 0.00 | 65 | 1006.5 |
| 20260505003020 | 77 | 171 | 1.7 | 1.7 | 0.00 | 0.00 | 0.00 | 65 | 1006.8 |
| 20260505002515 | 77 | 172 | 0.0 | 0.0 | 0.00 | 0.00 | 0.00 | 66 | 1006.6 |
| 20260505002014 | 78 | 217 | 0.9 | 0.9 | 0.00 | 0.00 | 0.00 | 66 | 1006.7 |
| 20260505001511 | 78 | 188 | 0.0 | 0.9 | 0.00 | 0.00 | 0.00 | 65 | 1006.9 |
| 20260505001008 | 78 | 231 | 0.9 | 0.9 | 0.00 | 0.00 | 0.00 | 65 | 1007.0 |
| 20260505000506 | 78 | 193 | 0.9 | 1.7 | 0.00 | 0.00 | 0.00 | 65 | 1006.7 |
| 20260505000003 | 78 | 194 | 0.0 | 0.0 | 0.00 | 0.00 | 0.00 | 64 | 1006.9 |
| 20260504235459 | 78 | 215 | 2.6 | 3.5 | 0.00 | 0.00 | 0.00 | 64 | 1006.9 |
| 20260504234956 | 78 | 186 | 0.0 | 0.0 | 0.00 | 0.00 | 0.00 | 64 | 1007.1 |
| 20260504234453 | 78 | 186 | 0.0 | 0.9 | 0.00 | 0.00 | 0.00 | 64 | 1007.2 |
| 20260504233949 | 78 | 203 | 1.7 | 2.6 | 0.00 | 0.00 | 0.00 | 63 | 1007.2 |
| 20260504233445 | 78 | 240 | 1.7 | 2.6 | 0.00 | 0.00 | 0.00 | 63 | 1007.1 |